[[{"header":{"parameterUnit":"m.s-1","parameterCategory":2,"la1":30.2992,"la2":30.254,"lo1":-89.0895,"lo2":-89.0443,"dy":0.0025,"dx":0.0025,"nx":19,"ny":19,"refTime":"2026-04-22T09:00:00:Z","depth":"0","parameterNumber":2,"parameterNumberName":"U-component_of_CURRENTS"},"data":[0,0,0,0.2935,0.2938,0.3074,0.3075,0.3245,0.3247,0,0,0,0,0,0,0,0,0,0,0,0.2881,0.2882,0.2935,0.2939,0.3074,0.3075,0.3245,0.3247,0,0,0,0,0,0,0,0,0,0,0,0.2881,0.2882,0.2883,0.2939,0.3074,0.3075,0.3245,0.3143,0,0,0,0,0,0,0,0,0,0,0.3011,0.2955,0.2882,0.2883,0.294,0.3074,0.3075,0.3138,0.3149,0.3183,0,0.3203,0,0.3234,0.3258,0.3259,0,0,0,0.2938,0.2946,0.2992,0.2883,0.2941,0.3074,0.3013,0.3144,0.3157,0.3198,0.3206,0.3213,0.3237,0.3259,0.326,0.3409,0.3409,0,0,0.293,0.29,0.2983,0.2999,0.2977,0.3009,0.3017,0.3152,0.316,0.3207,0.3217,0.324,0.3261,0.3262,0.3409,0.3409,0,0,0,0.2909,0.2895,0.2937,0.2992,0.302,0.3013,0.3022,0.3154,0.317,0.3219,0.3242,0.3262,0.3264,0.3408,0.3409,0.3302,0,0,0,0.2905,0.2883,0.2933,0.2916,0.3017,0.3088,0.3021,0.3161,0.3177,0.3241,0.3262,0.3265,0.3408,0.3409,0.3304,0.3248,0,0,0,0.2875,0.288,0.2897,0.2914,0.2976,0.3087,0.3111,0.3165,0.3191,0.3259,0.3266,0.3408,0.3408,0.3305,0.3252,0.3278,0,0,0,0.2838,0.2857,0.2896,0.2927,0.2974,0.3058,0.311,0.3188,0.3245,0.3262,0.3408,0.3409,0.3306,0.3255,0.328,0.3278,0.3271,0,0,0.2839,0.2857,0.2876,0.2914,0.2964,0.304,0.309,0.319,0.3269,0.3362,0.3366,0.3303,0.3252,0.3278,0.3327,0.3317,0,0,0,0.2861,0.2849,0.2882,0.2915,0.3004,0.3043,0.3146,0.3192,0.3278,0.3308,0.3351,0.3323,0.3342,0.3347,0.334,0.3334,0.3413,0.3413,0.3412,0.2768,0.2815,0.2818,0.287,0.2932,0.3053,0.3096,0.3179,0.3261,0.3287,0.3271,0.3263,0.3267,0.3262,0.3255,0.3318,0.3318,0.3317,0.3317,0.2682,0.2692,0.2719,0.2732,0.2819,0.287,0.3019,0.3086,0.3172,0.3223,0.3248,0.3276,0.3247,0.3244,0.3311,0.3312,0.3313,0.3313,0.3314,0.2585,0.2615,0.2584,0.2607,0.2643,0.2773,0.2861,0.2979,0.3076,0.3092,0.3183,0.3185,0.3155,0.3136,0.3136,0.3136,0.3136,0.3135,0.3135,0.2554,0.2532,0.2519,0.2512,0.2551,0.2635,0.279,0.2873,0.3004,0.3078,0.308,0.3159,0.3209,0.3185,0.3133,0.3134,0.3134,0.3134,0.3134,0.2556,0.2543,0.2521,0.2528,0.2571,0.2582,0.2729,0.2858,0.2951,0.3003,0.3073,0.31,0.3146,0.3154,0.3132,0.3069,0.3069,0.3069,0.3069,0.2601,0.2576,0.2571,0.2561,0.2581,0.2582,0.2615,0.2713,0.2903,0.2973,0.3041,0.306,0.3063,0.3107,0.3115,0.3094,0.3023,0.3023,0.3023,0.2656,0.2641,0.2622,0.2551,0.2566,0.254,0.2474,0.2495,0.2804,0.302,0.3028,0.303,0.3058,0.3063,0.3137,0.315,0.3119,0,0]},{"header":{"parameterUnit":"m.s-1","parameterCategory":2,"la1":30.2992,"la2":30.254,"lo1":-89.0895,"lo2":-89.0443,"dy":0.0025,"dx":0.0025,"nx":19,"ny":19,"refTime":"2026-04-22T09:00:00:Z","depth":"0","parameterNumber":3,"parameterNumberName":"V-component_of_CURRENTS"},"data":[0,0,0,0.0262,0.0261,0.0184,0.0183,0.0038,0.0037,0,0,0,0,0,0,0,0,0,0,0,0.0286,0.0286,0.0262,0.0261,0.0184,0.0183,0.0038,0.0037,0,0,0,0,0,0,0,0,0,0,0,0.0286,0.0286,0.0286,0.0261,0.0184,0.0183,0.0038,0.0103,0,0,0,0,0,0,0,0,0,0,0.0181,0.022,0.0286,0.0286,0.0261,0.0184,0.0183,0.0106,0.0099,0.0067,0,0.0069,0,0.006,0.0028,0.0028,0,0,0,0.0238,0.0227,0.0209,0.0286,0.026,0.0184,0.0212,0.0102,0.0094,0.0057,0.0067,0.0062,0.0058,0.0027,0.0027,-0.0009,-0.0009,0,0,0.0242,0.0262,0.0215,0.0204,0.0258,0.0215,0.021,0.0097,0.0093,0.0067,0.0059,0.0055,0.0026,0.0025,-0.001,-0.0009,0,0,0,0.027,0.0265,0.025,0.021,0.0205,0.0213,0.0208,0.0098,0.0094,0.0057,0.0053,0.0026,0.0024,-0.001,-0.0009,0.0143,0,0,0,0.0271,0.0283,0.0253,0.0262,0.0208,0.0158,0.0211,0.0102,0.0089,0.0054,0.0026,0.0023,-0.0011,-0.001,0.0138,0.0209,0,0,0,0.0286,0.0284,0.0282,0.0264,0.0242,0.016,0.0149,0.0099,0.0088,0.0027,0.0022,-0.0011,-0.001,0.0133,0.02,0.0255,0,0,0,0.0299,0.0333,0.0283,0.0317,0.0243,0.0241,0.0149,0.0128,0.0089,0.0025,-0.0011,-0.001,0.0131,0.0195,0.0249,0.0335,0.0367,0,0,0.0357,0.034,0.0362,0.0316,0.0351,0.0249,0.0277,0.0182,0.0095,0.0017,0.0016,0.0139,0.02,0.0253,0.0414,0.0444,0,0,0,0.039,0.0408,0.0408,0.0412,0.0384,0.0372,0.0277,0.0236,0.0175,0.0081,0.0124,0.0157,0.0187,0.0226,0.025,0.016,-0.0003,-0.0003,-0.0003,0.0488,0.0477,0.0521,0.0507,0.0503,0.0451,0.0436,0.0359,0.0259,0.0261,0.0271,0.0402,0.0447,0.0465,0.0372,0.0254,0.0254,0.0255,0.0255,0.058,0.0613,0.0602,0.0636,0.0621,0.0628,0.058,0.0527,0.0495,0.0395,0.0416,0.0372,0.0501,0.0391,0.0265,0.0263,0.0262,0.0261,0.026,0.0633,0.0657,0.0662,0.0718,0.0769,0.075,0.0828,0.0752,0.064,0.0664,0.0655,0.0652,0.0563,0.0662,0.0663,0.0663,0.0664,0.0664,0.0665,0.069,0.0706,0.0773,0.0815,0.0878,0.0964,0.0968,0.0972,0.0918,0.0829,0.0828,0.0607,0.0525,0.0517,0.0674,0.0672,0.0671,0.067,0.067,0.0799,0.0786,0.089,0.0956,0.1104,0.1248,0.1246,0.1267,0.1209,0.1204,0.0899,0.09,0.0852,0.0832,0.083,0.1058,0.1058,0.1058,0.1058,0.0879,0.0877,0.1019,0.1141,0.1298,0.1392,0.1564,0.1533,0.1286,0.1137,0.1007,0.0928,0.0916,0.0864,0.0843,0.0836,0.1061,0.1061,0.106,0.0986,0.1003,0.1117,0.1194,0.1377,0.1552,0.1712,0.1737,0.1352,0.1045,0.087,0.087,0.0729,0.0718,0.0607,0.0585,0.0562,0,0]}],[{"header":{"parameterUnit":"m.s-1","parameterCategory":2,"la1":30.2992,"la2":30.254,"lo1":-89.0895,"lo2":-89.0443,"dy":0.0025,"dx":0.0025,"nx":19,"ny":19,"refTime":"2026-04-22T09:00:00:Z","depth":"2","parameterNumber":2,"parameterNumberName":"U-component_of_CURRENTS"},"data":[0,0,0,0.2681,0.2683,0.2854,0.2855,0.3023,0.3024,0,0,0,0,0,0,0,0,0,0,0,0.264,0.2641,0.268,0.2683,0.2854,0.2855,0.3023,0.3024,0,0,0,0,0,0,0,0,0,0,0,0.264,0.2641,0.2642,0.2684,0.2854,0.2855,0.3023,0.2915,0,0,0,0,0,0,0,0,0,0,0.2759,0.2713,0.2641,0.2642,0.2684,0.2853,0.2855,0.2911,0.2922,0.292,0,0.294,0,0.296,0.3031,0.3031,0,0,0,0.272,0.2704,0.2742,0.2642,0.2686,0.2853,0.2787,0.2918,0.293,0.2934,0.2943,0.2949,0.2963,0.3031,0.3032,0.3137,0.3137,0,0,0.2711,0.2681,0.2734,0.275,0.272,0.2782,0.2792,0.2926,0.2937,0.2943,0.2953,0.2966,0.3032,0.3033,0.3136,0.3137,0,0,0,0.2659,0.2674,0.2712,0.2743,0.2764,0.2786,0.2798,0.2932,0.2943,0.2955,0.2968,0.3033,0.3034,0.3136,0.3137,0.31,0,0,0,0.2655,0.2641,0.2708,0.2693,0.2761,0.2854,0.2801,0.2935,0.295,0.2967,0.3033,0.3035,0.3136,0.3136,0.31,0.3038,0,0,0,0.2634,0.2639,0.2655,0.2691,0.2746,0.2853,0.2874,0.294,0.2955,0.3031,0.3035,0.3135,0.3136,0.31,0.304,0.3066,0,0,0,0.2604,0.262,0.2654,0.2685,0.2743,0.283,0.2874,0.2942,0.3002,0.3033,0.3136,0.3137,0.31,0.3041,0.3067,0.3038,0.3033,0,0,0.2603,0.262,0.2639,0.2673,0.272,0.281,0.2881,0.2966,0.3019,0.3093,0.3097,0.31,0.304,0.3066,0.3093,0.3086,0,0,0,0.2625,0.2618,0.2648,0.2683,0.2766,0.2832,0.2927,0.2973,0.3063,0.3053,0.313,0.3093,0.3111,0.3096,0.3091,0.3141,0.3141,0.3141,0.3141,0.2549,0.2594,0.261,0.2667,0.2729,0.2848,0.2913,0.2994,0.3056,0.3088,0.3087,0.3106,0.3092,0.3088,0.314,0.314,0.314,0.3139,0.3139,0.2493,0.251,0.2549,0.2573,0.2664,0.2732,0.2881,0.2944,0.3042,0.3078,0.31,0.3086,0.3079,0.3137,0.3138,0.3138,0.3138,0.3138,0.3138,0.2422,0.2448,0.2444,0.2486,0.2538,0.2667,0.2759,0.2882,0.2977,0.3004,0.3045,0.3046,0.3062,0.305,0.305,0.305,0.305,0.3049,0.3049,0.2392,0.2392,0.2397,0.2417,0.2459,0.2546,0.2703,0.2784,0.2907,0.2977,0.2978,0.3076,0.3079,0.3058,0.3047,0.3048,0.3048,0.3048,0.3048,0.2388,0.2389,0.2384,0.2403,0.2462,0.2465,0.2615,0.2735,0.2835,0.2876,0.2985,0.2987,0.2995,0.2999,0.2978,0.2947,0.2947,0.2947,0.2947,0.2419,0.2405,0.2418,0.242,0.2446,0.2447,0.2441,0.2505,0.2685,0.2736,0.2744,0.2745,0.2755,0.2749,0.2759,0.2734,0.2638,0.2637,0.2636,0.2467,0.2451,0.2448,0.2402,0.2424,0.2378,0.2263,0.2176,0.2351,0.2618,0.2622,0.294,0.2967,0.2972,0.2987,0.2994,0.2963,0,0]},{"header":{"parameterUnit":"m.s-1","parameterCategory":2,"la1":30.2992,"la2":30.254,"lo1":-89.0895,"lo2":-89.0443,"dy":0.0025,"dx":0.0025,"nx":19,"ny":19,"refTime":"2026-04-22T09:00:00:Z","depth":"2","parameterNumber":3,"parameterNumberName":"V-component_of_CURRENTS"},"data":[0,0,0,0.0204,0.0204,0.0129,0.0128,0.0006,0.0005,0,0,0,0,0,0,0,0,0,0,0,0.0229,0.0229,0.0204,0.0203,0.0129,0.0128,0.0006,0.0005,0,0,0,0,0,0,0,0,0,0,0,0.0229,0.0229,0.0229,0.0203,0.0129,0.0128,0.0006,0.0064,0,0,0,0,0,0,0,0,0,0,0.0138,0.0171,0.0229,0.0229,0.0203,0.0129,0.0128,0.0067,0.006,0.0038,0,0.004,0,0.0029,-0.0002,-0.0003,0,0,0,0.0182,0.0177,0.0162,0.0229,0.0203,0.0129,0.0157,0.0063,0.0056,0.003,0.0038,0.0034,0.0027,-0.0003,-0.0003,-0.0016,-0.0015,0,0,0.0187,0.0205,0.0167,0.0158,0.02,0.0159,0.0155,0.0059,0.0055,0.0038,0.0031,0.0025,-0.0004,-0.0004,-0.0016,-0.0016,0,0,0,0.0213,0.0208,0.0194,0.0162,0.0156,0.0158,0.0152,0.0059,0.0057,0.003,0.0023,-0.0004,-0.0005,-0.0017,-0.0016,0.0114,0,0,0,0.0214,0.0224,0.0197,0.0205,0.0159,0.0111,0.0155,0.0063,0.0052,0.0024,-0.0004,-0.0006,-0.0018,-0.0017,0.0109,0.0176,0,0,0,0.0229,0.0226,0.0224,0.0207,0.0185,0.0112,0.0103,0.006,0.0049,-0.0003,-0.0007,-0.0018,-0.0017,0.0104,0.0168,0.021,0,0,0,0.024,0.027,0.0224,0.0255,0.0186,0.0189,0.0103,0.0086,0.0053,-0.0005,-0.0018,-0.0016,0.0103,0.0163,0.0205,0.0263,0.029,0,0,0.0292,0.0277,0.0297,0.0255,0.0292,0.0197,0.0226,0.014,0.0066,0.0006,0.0005,0.0111,0.0167,0.0209,0.0351,0.0375,0,0,0,0.0323,0.0339,0.0341,0.0347,0.0325,0.0315,0.0229,0.0193,0.0142,0.0056,0.0105,0.0137,0.0159,0.0183,0.0203,-0.0009,-0.0009,-0.0009,-0.0009,0.0409,0.0402,0.0446,0.0438,0.0437,0.0392,0.0378,0.031,0.0223,0.0227,0.0238,0.0355,0.0384,0.0399,0.0226,0.0226,0.0227,0.0227,0.0228,0.0494,0.0518,0.052,0.0556,0.0547,0.0557,0.0513,0.0464,0.0438,0.0351,0.0366,0.0315,0.0429,0.0238,0.0236,0.0235,0.0233,0.0233,0.0232,0.0537,0.0552,0.0571,0.0628,0.0681,0.0667,0.0734,0.0669,0.0566,0.0586,0.0564,0.0562,0.043,0.0581,0.0581,0.0582,0.0582,0.0583,0.0583,0.0564,0.0591,0.0653,0.0709,0.0767,0.0849,0.086,0.086,0.0803,0.0718,0.0718,0.0473,0.0462,0.0449,0.0591,0.059,0.0589,0.0588,0.0587,0.0614,0.0626,0.0719,0.0785,0.0936,0.1066,0.1076,0.1092,0.1045,0.103,0.0776,0.0769,0.0726,0.0709,0.0701,0.09,0.09,0.09,0.09,0.0649,0.066,0.0795,0.0917,0.1073,0.1171,0.1303,0.1261,0.1114,0.098,0.0976,0.0915,0.0901,0.0862,0.0841,0.0832,0.1066,0.1066,0.1066,0.0698,0.0727,0.0833,0.0945,0.1133,0.1285,0.1395,0.1345,0.1118,0.1068,0.0959,0.092,0.0815,0.0799,0.0719,0.0694,0.0671,0,0]}],[{"header":{"parameterUnit":"m.s-1","parameterCategory":2,"la1":30.2992,"la2":30.254,"lo1":-89.0895,"lo2":-89.0443,"dy":0.0025,"dx":0.0025,"nx":19,"ny":19,"refTime":"2026-04-22T09:00:00:Z","depth":"4","parameterNumber":2,"parameterNumberName":"U-component_of_CURRENTS"},"data":[0,0,0,0.1524,0.1527,0.1658,0.1658,0.1763,0.1764,0,0,0,0,0,0,0,0,0,0,0,0.1488,0.1489,0.1524,0.1527,0.1658,0.1658,0.1763,0.1764,0,0,0,0,0,0,0,0,0,0,0,0.1487,0.1488,0.149,0.1528,0.1658,0.1659,0.1763,0.1681,0,0,0,0,0,0,0,0,0,0,0.1562,0.1537,0.1488,0.149,0.1528,0.1658,0.1659,0.1678,0.1686,0.1685,0,0.1715,0,0.1735,0.1769,0.1769,0,0,0,0.1532,0.153,0.1562,0.149,0.153,0.1657,0.16,0.1683,0.1692,0.1695,0.1716,0.1721,0.1737,0.177,0.177,0.1879,0.1879,0,0,0.1524,0.1512,0.1556,0.1568,0.1575,0.1596,0.1604,0.1689,0.1704,0.1717,0.1723,0.1739,0.177,0.1771,0.1878,0.1879,0,0,0,0.1501,0.1507,0.1539,0.1564,0.1589,0.16,0.1609,0.17,0.1711,0.1724,0.174,0.1771,0.1772,0.1877,0.1878,0.1962,0,0,0,0.1497,0.1493,0.1535,0.1529,0.1588,0.1655,0.1618,0.1705,0.1715,0.174,0.1771,0.1772,0.1877,0.1878,0.1958,0.1966,0,0,0,0.1479,0.149,0.1509,0.1528,0.1582,0.1654,0.1671,0.1708,0.1724,0.177,0.1773,0.1876,0.1878,0.1955,0.1962,0.2034,0,0,0,0.1457,0.1487,0.1509,0.1554,0.1581,0.1667,0.167,0.1744,0.1788,0.1771,0.1877,0.1878,0.1954,0.1959,0.2031,0.1756,0,0,0,0.1476,0.149,0.1516,0.1538,0.1603,0.1649,0.1743,0.1801,0.1806,0.1843,0.1847,0.1959,0.1961,0.2034,0.1844,0,0,0,0,0.1508,0.1529,0.1555,0.1602,0.1663,0.1741,0.1806,0.1846,0.1921,0.1838,0.1965,0.1963,0.2007,0.1836,0.1885,0.1885,0.1885,0.1885,0.1885,0.1494,0.1533,0.1584,0.1648,0.1709,0.1815,0.1892,0.1955,0.1966,0.2018,0.2038,0.2151,0.1975,0.2058,0.2058,0.2058,0.2059,0.2059,0.2059,0.1515,0.1535,0.1608,0.168,0.1762,0.1854,0.1981,0.203,0.2151,0.2118,0.2158,0.1942,0.2068,0.2066,0.2065,0.2064,0.2063,0.2063,0.2062,0.1491,0.1502,0.1579,0.1673,0.1779,0.1893,0.2002,0.2123,0.2203,0.2263,0.2101,0.221,0.2197,0.2309,0.2309,0.231,0.231,0.231,0.231,0.1417,0.1489,0.1546,0.1665,0.1725,0.1846,0.2036,0.211,0.2231,0.2148,0.2298,0.2235,0.2227,0.2211,0.2316,0.2315,0.2315,0.2314,0.2314,0.1339,0.1397,0.1458,0.1523,0.1646,0.1712,0.1932,0.2022,0.2095,0.2085,0.2091,0.21,0.2043,0.204,0.2014,0.2065,0.2062,0.2059,0,0.1263,0.1302,0.1357,0.1406,0.1457,0.1606,0.1638,0.1764,0.1887,0.1821,0.2087,0.2088,0.2094,0.2023,0.2015,0.198,0,0,0,0.1188,0.1225,0.1219,0.13,0.1339,0.1448,0.163,0.1617,0.1872,0.1865,0.1981,0.2001,0.2175,0.2334,0.2269,0.2259,0.2229,0,0]},{"header":{"parameterUnit":"m.s-1","parameterCategory":2,"la1":30.2992,"la2":30.254,"lo1":-89.0895,"lo2":-89.0443,"dy":0.0025,"dx":0.0025,"nx":19,"ny":19,"refTime":"2026-04-22T09:00:00:Z","depth":"4","parameterNumber":3,"parameterNumberName":"V-component_of_CURRENTS"},"data":[0,0,0,0.024,0.0239,0.0226,0.0226,0.0202,0.0201,0,0,0,0,0,0,0,0,0,0,0,0.0249,0.0249,0.024,0.0239,0.0226,0.0226,0.0202,0.0201,0,0,0,0,0,0,0,0,0,0,0,0.0249,0.0249,0.0249,0.0239,0.0226,0.0226,0.0202,0.0213,0,0,0,0,0,0,0,0,0,0,0.0227,0.0238,0.0249,0.0249,0.0239,0.0226,0.0226,0.0214,0.0212,0.0206,0,0.0209,0,0.0203,0.02,0.02,0,0,0,0.0238,0.0239,0.0234,0.0249,0.0239,0.0226,0.0232,0.0213,0.0212,0.0204,0.0208,0.0207,0.0202,0.0199,0.0199,0.0218,0.0218,0,0,0.0239,0.0246,0.0235,0.0234,0.0242,0.0232,0.0231,0.0212,0.0214,0.0208,0.0207,0.0202,0.0199,0.0199,0.0218,0.0218,0,0,0,0.0242,0.0246,0.0242,0.0235,0.0232,0.0232,0.0231,0.0215,0.0213,0.0206,0.0202,0.0199,0.0199,0.0217,0.0218,0.0269,0,0,0,0.0242,0.0248,0.0243,0.0247,0.0232,0.0224,0.0233,0.0215,0.0212,0.0202,0.0199,0.0199,0.0217,0.0218,0.0267,0.0309,0,0,0,0.0249,0.0248,0.0249,0.0247,0.0241,0.0224,0.0221,0.0214,0.0209,0.02,0.0199,0.0217,0.0217,0.0264,0.0305,0.0324,0,0,0,0.0253,0.0273,0.0249,0.0273,0.0241,0.026,0.0222,0.0229,0.0226,0.0199,0.0217,0.0218,0.0264,0.0302,0.0321,0.0319,0,0,0,0.0284,0.0277,0.0293,0.0272,0.0305,0.0261,0.029,0.0265,0.0237,0.0221,0.0221,0.0267,0.0305,0.0323,0.0373,0,0,0,0,0.0307,0.0318,0.0325,0.0336,0.0336,0.034,0.0308,0.029,0.0276,0.0238,0.0272,0.0294,0.0304,0.0296,0.0222,0.0222,0.0222,0.0222,0.0222,0.0348,0.0355,0.0389,0.0396,0.0406,0.0393,0.0389,0.0358,0.0319,0.032,0.0338,0.0395,0.0389,0.033,0.033,0.033,0.0331,0.0331,0.0331,0.0395,0.0402,0.0431,0.0465,0.0472,0.0491,0.0466,0.0438,0.0426,0.0387,0.0393,0.0354,0.0336,0.0335,0.0334,0.0334,0.0333,0.0333,0.0333,0.0404,0.0405,0.0445,0.0496,0.0548,0.0553,0.0593,0.056,0.0493,0.0501,0.0478,0.0434,0.0426,0.0499,0.0499,0.05,0.05,0.05,0.05,0.0372,0.0413,0.0455,0.0525,0.0572,0.0641,0.0669,0.0662,0.0609,0.0556,0.0524,0.0452,0.0446,0.0436,0.0505,0.0504,0.0503,0.0503,0.0503,0.0328,0.0364,0.0428,0.0484,0.0612,0.0678,0.0731,0.0726,0.0708,0.0663,0.0569,0.0564,0.0546,0.0539,0.053,0.063,0.063,0.0631,0,0.0285,0.031,0.0398,0.0494,0.0601,0.0692,0.0723,0.0737,0.0666,0.0642,0.0662,0.0554,0.055,0.0527,0.052,0.051,0,0,0,0.024,0.0286,0.034,0.0467,0.0593,0.0678,0.0737,0.0717,0.069,0.0693,0.0637,0.0635,0.0594,0.0518,0.048,0.0473,0.0454,0,0]}]]